Hattiesburg, MS

11:55 PM CDT on June 26, 2017 (GMT -0500)
Chain Municipal

Weather History for KHBG - January, 2013

Change the Weather History Date:

Thursday, January 3, 2013

  Actual Average Record
Temperature  
Mean Temperature 41 °F 49 °F  
Max Temperature 50 °F 60 °F 79 °F (1950)
Min Temperature 31 °F 38 °F 14 °F (1979)
Degree Days  
Heating Degree Days 24 16  
Month to date heating degree days 47 48  
Since 1 July heating degree days 749 833  
Cooling Degree Days 0 0  
Month to date cooling degree days 0 0  
Year to date cooling degree days 0 0  
Moisture  
Dew Point 31 °F    
Average Humidity 63    
Maximum Humidity 92    
Minimum Humidity 34    
Precipitation  
Precipitation T in 0.19 in 2.24 in (2015)
Month to date precipitation 0.64 0.56  
Year to date precipitation 0.64 0.56  
Sea Level Pressure  
Sea Level Pressure 30.31 in    
Wind  
Wind Speed 6 mph (NNW)    
Max Wind Speed 13 mph    
Max Gust Speed 17 mph    
Visibility 8 miles    
Events      
T = Trace of Precipitation, MM = Missing Value Source: NWS Daily Summary

Daily Weather History Graph

Daily Weather History Graph

Search for Another Location

Airport or City:

Trip Planner

Search our weather history database for the weather conditions in past years. The results will help you decide how hot, cold, wet, or windy it might be!

Date:

Astronomy

Jan. 03, 2013 Rise Set
Actual Time 6:56 AM CST 5:07 PM CST
Civil Twilight 6:29 AM CST 5:33 PM CST
Nautical Twilight 5:59 AM CST 6:03 PM CST
Astronomical Twilight 5:30 AM CST 6:33 PM CST
Moon 11:15 PM CST (1/3) 10:32 AM CST (1/3)
Length of Visible Light 11h 04m
Length of Day
10h 10m
Waning Gibbous, 65% of the Moon is Illuminated
Jan 3
Waning Gibbous
Jan 4
Last Quarter
Jan 11
New
Jan 18
First Quarter
Jan 26
Full

Hourly Weather History & Observations

Time (CST) Temp. Windchill Dew Point Humidity Pressure Visibility Wind Dir Wind Speed Gust Speed Precip Events Conditions
12:44 AM 41.0 °F 38.0 °F 37.4 °F 87% 30.26 in 7.0 mi NNW 4.6 mph - 0.00 in   Overcast
12:53 AM 41.0 °F 39.0 °F 37.9 °F 89% 30.26 in 6.0 mi North 3.5 mph - 0.00 in   Overcast
1:53 AM 41.0 °F 37.1 °F 37.9 °F 89% 30.24 in 6.0 mi North 5.8 mph - 0.00 in   Overcast
2:14 AM 41.0 °F 36.4 °F 37.4 °F 87% 30.25 in 6.0 mi North 6.9 mph - N/A   Overcast
2:21 AM 41.0 °F 36.4 °F 37.4 °F 87% 30.24 in 6.0 mi North 6.9 mph - N/A   Overcast
2:53 AM 39.9 °F 35.8 °F 37.0 °F 89% 30.25 in 6.0 mi North 5.8 mph - N/A   Overcast
3:53 AM 39.9 °F 34.5 °F 36.0 °F 86% 30.27 in 7.0 mi North 8.1 mph - N/A   Mostly Cloudy
4:35 AM 39.2 °F 33.6 °F 35.6 °F 87% 30.26 in 7.0 mi NNW 8.1 mph - N/A   Mostly Cloudy
4:53 AM 39.9 °F 33.9 °F 35.1 °F 83% 30.27 in 7.0 mi NNW 9.2 mph - N/A   Scattered Clouds
5:15 AM 39.2 °F 33.0 °F 35.6 °F 87% 30.27 in 7.0 mi North 9.2 mph - N/A   Mostly Cloudy
5:53 AM 39.0 °F 32.8 °F 35.1 °F 86% 30.30 in 7.0 mi NNW 9.2 mph - N/A   Overcast
6:13 AM 39.2 °F 33.0 °F 33.8 °F 81% 30.30 in 8.0 mi NNW 9.2 mph - N/A   Scattered Clouds
6:53 AM 37.9 °F 33.5 °F 32.0 °F 79% 30.31 in 9.0 mi NNW 5.8 mph - N/A   Clear
7:53 AM 37.0 °F 31.6 °F 30.9 °F 79% 30.32 in 8.0 mi NNW 6.9 mph - N/A   Clear
8:53 AM 39.0 °F 34.0 °F 30.9 °F 73% 30.35 in 8.0 mi North 6.9 mph - N/A   Clear
9:53 AM 39.9 °F 35.1 °F 28.9 °F 65% 30.36 in 10.0 mi North 6.9 mph - N/A   Clear
10:53 AM 41.0 °F 36.4 °F 28.0 °F 60% 30.35 in 10.0 mi North 6.9 mph - N/A   Clear
11:53 AM 43.0 °F 36.8 °F 27.0 °F 53% 30.33 in 10.0 mi North 11.5 mph - N/A   Clear
12:53 PM 44.1 °F 40.1 °F 25.0 °F 47% 30.31 in 10.0 mi NNE 6.9 mph - N/A   Clear
1:53 PM 48.0 °F - 25.0 °F 41% 30.30 in 10.0 mi North 9.2 mph - N/A   Clear
2:53 PM 48.9 °F - 24.1 °F 38% 30.30 in 10.0 mi NNE 9.2 mph - N/A   Clear
3:53 PM 48.9 °F - 24.1 °F 38% 30.31 in 10.0 mi North 8.1 mph - N/A   Clear
4:53 PM 48.0 °F - 21.9 °F 36% 30.33 in 10.0 mi North 6.9 mph - N/A   Clear
5:53 PM 43.0 °F 40.3 °F 26.1 °F 51% 30.35 in 10.0 mi NNW 4.6 mph - N/A   Clear
6:53 PM 37.9 °F - 30.0 °F 73% 30.37 in 10.0 mi Calm Calm - N/A   Clear
7:53 PM 35.1 °F - 30.9 °F 85% 30.38 in 10.0 mi Calm Calm - N/A   Clear
8:53 PM 32.0 °F 28.7 °F 28.9 °F 88% 30.39 in 10.0 mi WNW 3.5 mph - N/A   Clear
9:53 PM 34.0 °F - 28.9 °F 82% 30.40 in 10.0 mi Calm Calm - N/A   Clear
10:53 PM 30.9 °F 27.5 °F 28.0 °F 89% 30.40 in 10.0 mi NW 3.5 mph - N/A   Clear
11:53 PM 30.9 °F 27.5 °F 28.0 °F 89% 30.40 in 10.0 mi WNW 3.5 mph - N/A   Clear